| time (UTC) | temp C | wind direction | speed KPH | gust KPH | rain 1hr cm | rain 24hr cm | rain mn cm | humidity % | barometer mb |
| 20260505053246 | 6 | 139 | 0.0 | 0.0 | 0.00 | 0.00 | 0.00 | 99 | 1015.2 |
| 20260505052743 | 6 | 139 | 0.0 | 0.0 | 0.00 | 0.00 | 0.00 | 99 | 1015.2 |
| 20260505052240 | 6 | 139 | 0.0 | 0.0 | 0.00 | 0.00 | 0.00 | 99 | 1015.7 |
| 20260505051737 | 6 | 139 | 0.0 | 0.0 | 0.00 | 0.00 | 0.00 | 99 | 1015.2 |
| 20260505051235 | 6 | 139 | 4.8 | 4.8 | 0.00 | 0.00 | 0.00 | 99 | 1015.2 |
| 20260505050732 | 6 | 139 | 0.0 | 0.0 | 0.00 | 0.00 | 0.00 | 99 | 1015.2 |
| 20260505050231 | 6 | 139 | 0.0 | 0.0 | 0.00 | 0.00 | 0.00 | 99 | 1015.2 |
| 20260505041700 | 7 | 139 | 1.6 | 1.6 | 0.00 | 0.00 | 0.00 | 97 | 1015.2 |
| 20260505041158 | 7 | 139 | 0.0 | 0.0 | 0.00 | 0.00 | 0.00 | 96 | 1015.2 |
| 20260505040655 | 7 | 139 | 0.0 | 0.0 | 0.00 | 0.00 | 0.00 | 96 | 1015.7 |
| 20260505040152 | 7 | 139 | 0.0 | 0.0 | 0.00 | 0.00 | 0.00 | 95 | 1015.2 |
| 20260505035648 | 7 | 139 | 0.0 | 0.0 | 0.00 | 0.00 | 0.00 | 95 | 1015.7 |
| 20260505035144 | 8 | 139 | 1.6 | 1.6 | 0.00 | 0.00 | 0.00 | 94 | 1015.2 |
| 20260505034641 | 8 | 139 | 0.0 | 1.6 | 0.00 | 0.00 | 0.00 | 93 | 1015.7 |
| 20260505034139 | 8 | 139 | 1.6 | 1.6 | 0.00 | 0.00 | 0.00 | 94 | 1015.7 |
| 20260505033634 | 8 | 138 | 0.0 | 1.6 | 0.00 | 0.00 | 0.00 | 93 | 1015.7 |
| 20260505033133 | 9 | 138 | 0.0 | 0.0 | 0.00 | 0.00 | 0.00 | 91 | 1015.7 |
| 20260505032631 | 9 | 138 | 1.6 | 1.6 | 0.00 | 0.00 | 0.00 | 91 | 1015.7 |
| 20260505032127 | 9 | 138 | 0.0 | 0.0 | 0.00 | 0.00 | 0.00 | 91 | 1015.7 |
| 20260505031624 | 9 | 138 | 0.0 | 0.0 | 0.00 | 0.00 | 0.00 | 90 | 1015.7 |
| 20260505031120 | 10 | 138 | 0.0 | 1.6 | 0.00 | 0.00 | 0.00 | 88 | 1015.7 |
| 20260505030617 | 10 | 138 | 3.2 | 3.2 | 0.00 | 0.00 | 0.00 | 87 | 1015.7 |
| 20260505030113 | 10 | 138 | 0.0 | 0.0 | 0.00 | 0.00 | 0.00 | 88 | 1015.7 |
| 20260505025609 | 10 | 138 | 0.0 | 0.0 | 0.00 | 0.00 | 0.00 | 87 | 1015.7 |
| 20260505025108 | 10 | 138 | 3.2 | 3.2 | 0.00 | 0.00 | 0.00 | 86 | 1015.7 |
| 20260505024605 | 11 | 138 | 0.0 | 0.0 | 0.00 | 0.00 | 0.00 | 84 | 1015.7 |
| 20260505024102 | 11 | 138 | 1.6 | 1.6 | 0.00 | 0.00 | 0.00 | 83 | 1015.7 |
| 20260505023559 | 11 | 138 | 0.0 | 0.0 | 0.00 | 0.00 | 0.00 | 81 | 1015.7 |
| 20260505023057 | 12 | 138 | 1.6 | 1.6 | 0.00 | 0.00 | 0.00 | 80 | 1015.7 |
| 20260505022554 | 12 | 138 | 3.2 | 3.2 | 0.00 | 0.00 | 0.00 | 79 | 1015.7 |
| 20260505022051 | 12 | 138 | 0.0 | 0.0 | 0.00 | 0.00 | 0.00 | 77 | 1015.2 |
| 20260505021548 | 12 | 138 | 4.8 | 4.8 | 0.00 | 0.00 | 0.00 | 77 | 1015.2 |
| 20260505021045 | 12 | 138 | 0.0 | 0.0 | 0.00 | 0.00 | 0.00 | 77 | 1015.7 |
| 20260505020544 | 13 | 138 | 3.2 | 3.2 | 0.00 | 0.00 | 0.00 | 77 | 1015.2 |
| 20260505020042 | 13 | 138 | 1.6 | 3.2 | 0.00 | 0.00 | 0.00 | 73 | 1014.9 |
| 20260505015539 | 13 | 137 | 4.8 | 4.8 | 0.00 | 0.00 | 0.00 | 74 | 1015.2 |
| 20260505015035 | 14 | 138 | 3.2 | 3.2 | 0.00 | 0.00 | 0.00 | 73 | 1015.2 |
| 20260505014532 | 14 | 235 | 0.0 | 1.6 | 0.00 | 0.00 | 0.00 | 69 | 1015.2 |
| 20260505014029 | 14 | 162 | 1.6 | 1.6 | 0.00 | 0.00 | 0.00 | 68 | 1014.9 |
| 20260505013527 | 15 | 177 | 0.0 | 0.0 | 0.00 | 0.00 | 0.00 | 68 | 1014.9 |
| 20260505013024 | 15 | 179 | 4.8 | 4.8 | 0.00 | 0.00 | 0.00 | 67 | 1014.9 |
| 20260505012522 | 15 | 78 | 1.6 | 3.2 | 0.00 | 0.00 | 0.00 | 68 | 1014.6 |
| 20260505012019 | 15 | 26 | 0.0 | 0.0 | 0.00 | 0.00 | 0.00 | 70 | 1014.6 |
| 20260505011514 | 15 | 26 | 1.6 | 1.6 | 0.00 | 0.00 | 0.00 | 62 | 1014.6 |
| 20260505011011 | 14 | 185 | 1.6 | 1.6 | 0.00 | 0.00 | 0.00 | 67 | 1014.6 |
| 20260505010507 | 15 | 185 | 1.6 | 3.2 | 0.00 | 0.00 | 0.00 | 67 | 1014.6 |
| 20260505010003 | 15 | 185 | 3.2 | 3.2 | 0.00 | 0.00 | 0.00 | 66 | 1014.9 |
| 20260505005500 | 16 | 185 | 3.2 | 3.2 | 0.00 | 0.00 | 0.00 | 62 | 1014.6 |
| 20260505004958 | 17 | 186 | 1.6 | 1.6 | 0.00 | 0.00 | 0.00 | 60 | 1014.6 |
| 20260505004454 | 17 | 191 | 4.8 | 8.0 | 0.00 | 0.00 | 0.00 | 54 | 1014.6 |
| 20260505003951 | 18 | 224 | 1.6 | 1.6 | 0.00 | 0.00 | 0.00 | 56 | 1014.6 |
| 20260505003448 | 18 | 192 | 3.2 | 3.2 | 0.00 | 0.00 | 0.00 | 55 | 1014.6 |
| 20260505002944 | 18 | 195 | 8.0 | 11.3 | 0.00 | 0.00 | 0.00 | 55 | 1014.6 |
| 20260505002441 | 18 | 213 | 6.4 | 8.0 | 0.00 | 0.00 | 0.00 | 55 | 1014.6 |
| 20260505001939 | 18 | 206 | 4.8 | 4.8 | 0.00 | 0.00 | 0.00 | 54 | 1014.6 |
| 20260505001436 | 18 | 210 | 3.2 | 3.2 | 0.00 | 0.00 | 0.00 | 54 | 1014.6 |
| 20260505000933 | 18 | 188 | 4.8 | 4.8 | 0.00 | 0.00 | 0.00 | 53 | 1014.2 |
| 20260505000431 | 19 | 188 | 3.2 | 4.8 | 0.00 | 0.00 | 0.00 | 52 | 1014.2 |
| 20260504235928 | 19 | 214 | 3.2 | 4.8 | 0.00 | 0.00 | 0.00 | 52 | 1014.2 |
| 20260504235425 | 19 | 242 | 6.4 | 9.7 | 0.00 | 0.00 | 0.00 | 51 | 1014.2 |
| 20260504234921 | 19 | 251 | 11.3 | 12.9 | 0.00 | 0.00 | 0.00 | 50 | 1014.2 |
| 20260504234419 | 20 | 180 | 8.0 | 11.3 | 0.00 | 0.00 | 0.00 | 51 | 1014.2 |
| 20260504233915 | 20 | 262 | 6.4 | 9.7 | 0.00 | 0.00 | 0.00 | 49 | 1014.2 |
| 20260504233411 | 20 | 260 | 9.7 | 11.3 | 0.00 | 0.00 | 0.00 | 49 | 1014.2 |
| 20260504232908 | 20 | 179 | 4.8 | 8.0 | 0.00 | 0.00 | 0.00 | 49 | 1013.8 |
| 20260504232405 | 20 | 207 | 9.7 | 11.3 | 0.00 | 0.00 | 0.00 | 48 | 1014.2 |
| 20260504231902 | 20 | 249 | 1.6 | 1.6 | 0.00 | 0.00 | 0.00 | 49 | 1013.8 |
| 20260504231358 | 20 | 259 | 4.8 | 14.5 | 0.00 | 0.00 | 0.00 | 47 | 1013.8 |
| 20260504230854 | 20 | 216 | 6.4 | 8.0 | 0.00 | 0.00 | 0.00 | 46 | 1013.8 |
| 20260504230352 | 21 | 209 | 8.0 | 9.7 | 0.00 | 0.00 | 0.00 | 47 | 1013.8 |
| 20260504225851 | 21 | 140 | 9.7 | 11.3 | 0.00 | 0.00 | 0.00 | 47 | 1013.8 |
| 20260504225347 | 21 | 218 | 6.4 | 9.7 | 0.00 | 0.00 | 0.00 | 45 | 1013.8 |
| 20260504224844 | 21 | 189 | 8.0 | 9.7 | 0.00 | 0.00 | 0.00 | 44 | 1013.8 |
| 20260504224341 | 21 | 199 | 9.7 | 12.9 | 0.00 | 0.00 | 0.00 | 44 | 1013.8 |
| 20260504223838 | 21 | 247 | 4.8 | 4.8 | 0.00 | 0.00 | 0.00 | 44 | 1013.8 |
| 20260504223333 | 21 | 188 | 11.3 | 14.5 | 0.00 | 0.00 | 0.00 | 42 | 1013.8 |
| 20260504222830 | 21 | 230 | 4.8 | 8.0 | 0.00 | 0.00 | 0.00 | 44 | 1013.8 |
| 20260504222327 | 21 | 253 | 4.8 | 8.0 | 0.00 | 0.00 | 0.00 | 43 | 1013.8 |
| 20260504221826 | 21 | 180 | 4.8 | 8.0 | 0.00 | 0.00 | 0.00 | 40 | 1013.8 |
| 20260504221322 | 21 | 193 | 14.5 | 17.7 | 0.00 | 0.00 | 0.00 | 42 | 1013.8 |
| 20260504220819 | 21 | 132 | 9.7 | 12.9 | 0.00 | 0.00 | 0.00 | 42 | 1013.8 |
| 20260504220316 | 21 | 136 | 9.7 | 11.3 | 0.00 | 0.00 | 0.00 | 40 | 1014.2 |
| 20260504215813 | 20 | 170 | 8.0 | 9.7 | 0.00 | 0.00 | 0.00 | 41 | 1013.8 |
| 20260504215309 | 20 | 157 | 9.7 | 11.3 | 0.00 | 0.00 | 0.00 | 41 | 1013.8 |
| 20260504214805 | 20 | 150 | 8.0 | 11.3 | 0.00 | 0.00 | 0.00 | 41 | 1013.8 |
| 20260504214302 | 20 | 167 | 8.0 | 9.7 | 0.00 | 0.00 | 0.00 | 42 | 1013.8 |
| 20260504213759 | 20 | 172 | 8.0 | 8.0 | 0.00 | 0.00 | 0.00 | 41 | 1013.8 |
| 20260504213255 | 20 | 187 | 6.4 | 9.7 | 0.00 | 0.00 | 0.00 | 41 | 1013.8 |
| 20260504212752 | 20 | 150 | 4.8 | 4.8 | 0.00 | 0.00 | 0.00 | 41 | 1013.8 |
| 20260504212248 | 20 | 165 | 3.2 | 3.2 | 0.00 | 0.00 | 0.00 | 41 | 1014.2 |
| 20260504211746 | 20 | 168 | 6.4 | 8.0 | 0.00 | 0.00 | 0.00 | 43 | 1013.8 |
| 20260504211242 | 21 | 191 | 11.3 | 12.9 | 0.00 | 0.00 | 0.00 | 40 | 1013.8 |
| 20260504210740 | 21 | 164 | 1.6 | 3.2 | 0.00 | 0.00 | 0.00 | 44 | 1013.8 |
| 20260504210237 | 21 | 201 | 1.6 | 3.2 | 0.00 | 0.00 | 0.00 | 44 | 1014.2 |
| 20260504205733 | 21 | 179 | 1.6 | 3.2 | 0.00 | 0.00 | 0.00 | 43 | 1013.8 |
| 20260504205231 | 21 | 236 | 1.6 | 3.2 | 0.00 | 0.00 | 0.00 | 42 | 1013.8 |
| 20260504204729 | 21 | 172 | 6.4 | 12.9 | 0.00 | 0.00 | 0.00 | 42 | 1013.8 |
| 20260504204227 | 21 | 228 | 1.6 | 3.2 | 0.00 | 0.00 | 0.00 | 41 | 1014.2 |
| 20260504203727 | 21 | 178 | 6.4 | 8.0 | 0.00 | 0.00 | 0.00 | 42 | 1014.2 |
| 20260504203224 | 21 | 175 | 4.8 | 4.8 | 0.00 | 0.00 | 0.00 | 40 | 1014.2 |
| 20260504202724 | 21 | 217 | 9.7 | 12.9 | 0.00 | 0.00 | 0.00 | 39 | 1013.8 |
| 20260504202221 | 21 | 274 | 0.0 | 0.0 | 0.00 | 0.00 | 0.00 | 42 | 1013.8 |
| 20260504201718 | 21 | 247 | 3.2 | 4.8 | 0.00 | 0.00 | 0.00 | 41 | 1013.8 |
| 20260504201215 | 21 | 231 | 4.8 | 4.8 | 0.00 | 0.00 | 0.00 | 42 | 1014.2 |
| 20260504200713 | 22 | 298 | 8.0 | 9.7 | 0.00 | 0.00 | 0.00 | 37 | 1013.8 |
| 20260504200209 | 22 | 297 | 4.8 | 4.8 | 0.00 | 0.00 | 0.00 | 37 | 1014.2 |
| 20260504195705 | 23 | 230 | 6.4 | 8.0 | 0.00 | 0.00 | 0.00 | 36 | 1014.2 |
| 20260504195201 | 23 | 317 | 3.2 | 3.2 | 0.00 | 0.00 | 0.00 | 36 | 1014.2 |
| 20260504194658 | 23 | 303 | 4.8 | 4.8 | 0.00 | 0.00 | 0.00 | 36 | 1014.2 |
| 20260504194154 | 24 | 312 | 9.7 | 12.9 | 0.00 | 0.00 | 0.00 | 34 | 1014.2 |
| 20260504193651 | 23 | 348 | 0.0 | 1.6 | 0.00 | 0.00 | 0.00 | 34 | 1014.6 |
| 20260504193149 | 23 | 325 | 6.4 | 8.0 | 0.00 | 0.00 | 0.00 | 33 | 1014.6 |
| 20260504192647 | 23 | 21 | 4.8 | 4.8 | 0.00 | 0.00 | 0.00 | 35 | 1014.6 |
| 20260504192144 | 23 | 316 | 4.8 | 8.0 | 0.00 | 0.00 | 0.00 | 36 | 1014.6 |
| 20260504191643 | 22 | 1 | 8.0 | 9.7 | 0.00 | 0.00 | 0.00 | 34 | 1014.6 |
| 20260504191138 | 22 | 210 | 4.8 | 8.0 | 0.00 | 0.00 | 0.00 | 37 | 1014.9 |
| 20260504190634 | 22 | 217 | 8.0 | 9.7 | 0.00 | 0.00 | 0.00 | 39 | 1014.6 |
| 20260504190131 | 22 | 284 | 3.2 | 4.8 | 0.00 | 0.00 | 0.00 | 40 | 1014.9 |
| 20260504185628 | 22 | 334 | 3.2 | 3.2 | 0.00 | 0.00 | 0.00 | 40 | 1014.9 |
| 20260504185125 | 23 | 333 | 8.0 | 11.3 | 0.00 | 0.00 | 0.00 | 40 | 1014.9 |
| 20260504184620 | 22 | 203 | 4.8 | 8.0 | 0.00 | 0.00 | 0.00 | 39 | 1014.9 |
| 20260504184115 | 22 | 307 | 6.4 | 9.7 | 0.00 | 0.00 | 0.00 | 39 | 1014.9 |
| 20260504183613 | 22 | 24 | 8.0 | 9.7 | 0.00 | 0.00 | 0.00 | 40 | 1014.9 |
| 20260504183111 | 22 | 309 | 0.0 | 0.0 | 0.00 | 0.00 | 0.00 | 43 | 1014.9 |
| 20260504182608 | 22 | 301 | 8.0 | 11.3 | 0.00 | 0.00 | 0.00 | 42 | 1014.9 |
| 20260504182105 | 22 | 254 | 0.0 | 0.0 | 0.00 | 0.00 | 0.00 | 42 | 1015.2 |
| 20260504181602 | 21 | 171 | 1.6 | 1.6 | 0.00 | 0.00 | 0.00 | 44 | 1015.2 |
| 20260504181100 | 21 | 223 | 4.8 | 8.0 | 0.00 | 0.00 | 0.00 | 42 | 1015.2 |
| 20260504180559 | 22 | 249 | 4.8 | 4.8 | 0.00 | 0.00 | 0.00 | 44 | 1015.2 |
| 20260504180057 | 21 | 52 | 6.4 | 8.0 | 0.00 | 0.00 | 0.00 | 40 | 1015.7 |
| 20260504175554 | 21 | 284 | 8.0 | 9.7 | 0.00 | 0.00 | 0.00 | 44 | 1015.2 |
| 20260504175051 | 21 | 242 | 6.4 | 11.3 | 0.00 | 0.00 | 0.00 | 47 | 1015.2 |
| 20260504174549 | 21 | 170 | 8.0 | 11.3 | 0.00 | 0.00 | 0.00 | 43 | 1015.2 |
| 20260504174045 | 21 | 60 | 3.2 | 3.2 | 0.00 | 0.00 | 0.00 | 39 | 1015.7 |
| 20260504173542 | 21 | 227 | 9.7 | 11.3 | 0.00 | 0.00 | 0.00 | 42 | 1015.7 |
| 20260504173040 | 22 | 306 | 4.8 | 8.0 | 0.00 | 0.00 | 0.00 | 41 | 1015.7 |
| 20260504172536 | 21 | 94 | 4.8 | 4.8 | 0.00 | 0.00 | 0.00 | 41 | 1015.7 |
| 20260504172032 | 20 | 98 | 4.8 | 4.8 | 0.00 | 0.00 | 0.00 | 44 | 1015.7 |
| 20260504171529 | 20 | 173 | 9.7 | 11.3 | 0.00 | 0.00 | 0.00 | 43 | 1016.0 |
| 20260504171026 | 20 | 318 | 1.6 | 3.2 | 0.00 | 0.00 | 0.00 | 42 | 1016.0 |
| 20260504170522 | 20 | 19 | 4.8 | 8.0 | 0.00 | 0.00 | 0.00 | 44 | 1016.0 |
| 20260504160443 | 20 | 35 | 8.0 | 11.3 | 0.00 | 0.00 | 0.00 | 44 | 1016.7 |
| 20260504150906 | 18 | 70 | 0.0 | 1.6 | 0.00 | 0.00 | 0.00 | 48 | 1017.8 |
| 20260504150403 | 18 | 43 | 4.8 | 8.0 | 0.00 | 0.00 | 0.00 | 49 | 1017.8 |
| 20260504141333 | 16 | 167 | 0.0 | 0.0 | 0.00 | 0.00 | 0.00 | 57 | 1017.8 |
| 20260504140829 | 15 | 167 | 3.2 | 3.2 | 0.00 | 0.00 | 0.00 | 63 | 1017.8 |
| 20260504140325 | 15 | 166 | 0.0 | 1.6 | 0.00 | 0.00 | 0.00 | 66 | 1017.8 |
| 20260504130754 | 11 | 153 | 0.0 | 0.0 | 0.00 | 0.00 | 0.00 | 77 | 1017.8 |
| 20260504130250 | 11 | 153 | 0.0 | 0.0 | 0.00 | 0.00 | 0.00 | 78 | 1017.8 |
| 20260504120214 | 3 | 59 | 0.0 | 0.0 | 0.00 | 0.00 | 0.00 | 99 | 1017.5 |
| 20260504110641 | 0 | 54 | 0.0 | 0.0 | 0.00 | 0.00 | 0.00 | 99 | 1016.7 |
| 20260504110137 | 0 | 54 | 0.0 | 0.0 | 0.00 | 0.00 | 0.00 | 99 | 1017.1 |
| 20260504100603 | 0 | 305 | 0.0 | 0.0 | 0.00 | 0.00 | 0.00 | 99 | 1017.5 |
| 20260504081956 | 0 | 305 | 0.0 | 0.0 | 0.00 | 0.00 | 0.00 | 99 | 1017.1 |
| 20260504081454 | 1 | 305 | 0.0 | 0.0 | 0.00 | 0.00 | 0.00 | 99 | 1016.7 |
| 20260504080949 | 1 | 305 | 0.0 | 0.0 | 0.00 | 0.00 | 0.00 | 99 | 1016.7 |
| 20260504080446 | 0 | 305 | 0.0 | 0.0 | 0.00 | 0.00 | 0.00 | 99 | 1016.7 |